Location: Wanzleben
(52.0609°N, 11.4408°E)
Time: 16:52:35
(UTC+00:00)

Envisat - Pass Details

Date: 01 December 2020
Orbit: 764 x 766 km, 98.1° (Epoch: 20 January)

Event Time Altitude Azimuth Distance (km) Brightness Sun altitude
Rises 16:36:17 0° 181° (S) 3,222 6.5 -13.1°
Reaches altitude 10° 16:38:40 10° 187° (S) 2,300 5.8 -13.5°
Maximum altitude 16:43:34 48° 261° (W) 1,001 4.1 -14.2°
Drops below altitude 10° 16:48:30 10° 336° (NNW) 2,317 5.6 -14.9°
Sets 16:50:54 0° 342° (NNW) 3,248 6.3 -15.3°
